| time (UTC) | temp F | wind direction | speed knots | gust knots | rain 1hr in | rain 24hr in | rain mn in | humidity % | barometer mb |
| 20260504184218 | 49 | 210 | 2.6 | 4.3 | 0.00 | 0.18 | 0.00 | 72 | 1015.1 |
| 20260504183016 | 50 | 202 | 2.6 | 4.3 | 0.00 | 0.24 | 0.00 | 68 | 1014.8 |
| 20260504181818 | 51 | 226 | 0.9 | 0.9 | 0.00 | 0.24 | 0.00 | 63 | 1014.8 |
| 20260504180619 | 51 | 262 | 1.7 | 2.6 | 0.00 | 0.24 | 0.00 | 60 | 1014.6 |
| 20260504175419 | 53 | 304 | 5.2 | 8.7 | 0.00 | 0.25 | 0.00 | 54 | 1014.3 |
| 20260504174217 | 53 | 302 | 5.2 | 7.8 | 0.00 | 0.25 | 0.00 | 57 | 1014.0 |
| 20260504173016 | 53 | 273 | 2.6 | 5.2 | 0.00 | 0.25 | 0.00 | 57 | 1014.0 |
| 20260504171816 | 54 | 295 | 1.7 | 4.3 | 0.00 | 0.25 | 0.00 | 58 | 1013.9 |
| 20260504150617 | 57 | 285 | 7.8 | 12.2 | 0.00 | 0.25 | 0.00 | 56 | 1010.3 |
| 20260504140617 | 59 | 245 | 4.3 | 8.7 | 0.00 | 0.25 | 0.25 | 58 | 1008.9 |
| 20260504130618 | 56 | 107 | 0.0 | 0.0 | 0.00 | 0.25 | 0.25 | 71 | 1007.4 |
| 20260504110617 | 65 | 28 | 2.6 | 6.1 | 0.00 | 0.25 | 0.25 | 45 | 1003.6 |
| 20260504081816 | 73 | 22 | 1.7 | 5.2 | 0.00 | 0.25 | 0.25 | 43 | 997.1 |
| 20260504080616 | 74 | 337 | 10.4 | 17.4 | 0.00 | 0.25 | 0.25 | 42 | 996.6 |
| 20260503235821 | 63 | 233 | 0.9 | 1.7 | 0.00 | 0.25 | 0.25 | 95 | 997.4 |
| 20260503234622 | 63 | 297 | 1.7 | 4.3 | 0.00 | 0.25 | 0.25 | 97 | 997.1 |
| 20260503233421 | 62 | 284 | 0.9 | 1.7 | 0.00 | 0.25 | 0.25 | 97 | 997.4 |
| 20260503232221 | 63 | 22 | 0.9 | 1.7 | 0.00 | 0.25 | 0.25 | 96 | 997.2 |
| 20260503231022 | 63 | 133 | 2.6 | 4.3 | 0.00 | 0.25 | 0.25 | 96 | 997.5 |
| 20260503224624 | 61 | 114 | 0.0 | 0.0 | 0.00 | 0.25 | 0.25 | 99 | 997.6 |
| 20260503223421 | 60 | 205 | 1.7 | 2.6 | 0.00 | 0.25 | 0.25 | 99 | 997.7 |
| 20260503222222 | 59 | 209 | 1.7 | 4.3 | 0.00 | 0.25 | 0.25 | 99 | 997.5 |
| 20260503221022 | 58 | 315 | 1.7 | 2.6 | 0.00 | 0.25 | 0.25 | 99 | 996.9 |
| 20260503215822 | 58 | 308 | 0.9 | 1.7 | 0.00 | 0.25 | 0.25 | 99 | 997.5 |
| 20260503214621 | 58 | 199 | 0.0 | 0.0 | 0.00 | 0.25 | 0.25 | 99 | 997.4 |
| 20260503213423 | 58 | 291 | 0.9 | 1.7 | 0.00 | 0.25 | 0.25 | 99 | 997.2 |
| 20260503212221 | 58 | 166 | 0.0 | 0.0 | 0.00 | 0.25 | 0.25 | 99 | 997.1 |
| 20260503211022 | 57 | 54 | 0.0 | 0.9 | 0.02 | 0.25 | 0.25 | 99 | 997.0 |
| 20260503205822 | 57 | 321 | 0.0 | 0.0 | 0.02 | 0.25 | 0.25 | 99 | 997.2 |
| 20260503204622 | 57 | 311 | 0.0 | 0.0 | 0.18 | 0.25 | 0.25 | 99 | 997.5 |
| 20260503203421 | 57 | 289 | 2.6 | 2.6 | 0.18 | 0.25 | 0.25 | 99 | 997.7 |
| 20260503202222 | 57 | 251 | 1.7 | 2.6 | 0.18 | 0.25 | 0.25 | 99 | 997.8 |
| 20260503201022 | 57 | 264 | 0.9 | 0.9 | 0.16 | 0.23 | 0.23 | 99 | 997.4 |
| 20260503195821 | 57 | 264 | 0.9 | 0.9 | 0.16 | 0.23 | 0.23 | 99 | 997.3 |
| 20260503194620 | 58 | 292 | 0.9 | 0.9 | 0.00 | 0.07 | 0.07 | 99 | 997.8 |
| 20260503193422 | 58 | 292 | 0.9 | 0.9 | 0.06 | 0.07 | 0.07 | 99 | 997.6 |
| 20260503192223 | 58 | 292 | 0.9 | 0.9 | 0.06 | 0.07 | 0.07 | 99 | 998.1 |
| 20260503191021 | 58 | 292 | 0.9 | 0.9 | 0.06 | 0.07 | 0.07 | 99 | 997.6 |
| 20260503185821 | 58 | 292 | 0.9 | 0.9 | 0.07 | 0.07 | 0.07 | 99 | 997.7 |